Regional Weather Roundup
Issued by NWS Northern Indiana

Home | Current Version | Previous Version | Text Only | Print | Product List | Glossary Off
Versions: 1 2 3 4 5 6 7 8 9 10 11 12 13 14 15 16 17 18 19 20 21 22 23 24 25 26 27 28 29 30 31 32 33 34 35 36 37 38 39 40 41 42 43 44 45 46 47 48 49 50

000
ASUS43 KIWX 270800
RWRIWX

KIWX WEATHER ROUNDUP
NATIONAL WEATHER SERVICE NORTHERN INDIANA
400 AM EDT THU APR 27 2017

NOTE: "FAIR" INDICATES FEW OR NO CLOUDS BELOW 12,000 FEET WITH NO
SIGNIFICANT WEATHER AND/OR OBSTRUCTIONS TO VISIBILITY.

* THESE STATIONS ARE NOT UNDER NWS QUALITY CONTROL. THEY ALSO MAY NOT
  REPORT WEATHER SUCH AS PRECIPITATION OR FOG.

INZ001>027-270900-
NORTHERN INDIANA

CITY           SKY/WX    TMP DP  RH WIND       PRES   REMARKS
KNOX*          CLOUDY    61  50  67 S12       29.44S
SOUTH BEND     CLOUDY    60  60 100 S7        29.45R
GOSHEN         CLOUDY    63  58  83 S9        29.43F
MONTICELLO*    DRIZZLE   60  57  89 S13G25    29.46F
FORT WAYNE     CLOUDY    68  56  65 S16       29.46F
PERU/GRISSOM   CLOUDY    61  61 100 SW16      29.48R

$$
INZ028>050-270900-
CENTRAL INDIANA

CITY           SKY/WX    TMP DP  RH WIND       PRES   REMARKS
LAFAYETTE      CLOUDY    59  57  93 S8        29.44F
KOKOMO*        CLOUDY    61  57  87 SW14G22   29.51R
MUNCIE*        CLOUDY    68  56  65 W21G37    29.52R
INDIANAPOLIS   LGT RAIN  60  57  89 S12       29.54S

$$
MIZ043>046-050>051-056>058-064>065-071>073-077>080-270900-
SOUTHWEST LOWER MICHIGAN

CITY           SKY/WX    TMP DP  RH WIND       PRES   REMARKS
BATTLE CREEK   MOCLDY    65  56  72 S8        29.43F
BENTON HARBOR  CLOUDY    59  57  93 SE3       29.40F FOG
COLDWATER*     MOCLDY    67  55  65 S13       29.44F
HILLSDALE*     CLOUDY    64  52  63 SE9       29.47S
HOLLAND        CLOUDY    59  57  93 SE5       29.39F FOG
GRAND RAPIDS   CLOUDY    61  61 100 S6        29.40F
KALAMAZOO      CLOUDY    62  56  80 CALM      29.42F
STURGIS*       CLOUDY    61  57  85 S6        29.42F
THREE RIVERS*  FAIR      62  58  88 S3        29.42F

$$
OHZ001>008-015>018-024>025-270900-
NORTHWEST OHIO

CITY           SKY/WX    TMP DP  RH WIND       PRES   REMARKS
DEFIANCE       MOCLDY    67  49  52 S12       29.49F
FINDLAY        CLEAR     68  50  52 S15       29.52F
TOLEDO EXPRESS CLOUDY    66  49  54 SE6       29.50F
TOLEDO METCALF CLOUDY    68  53  58 S15       29.52F
LIMA           CLEAR     70  53  54 S16       29.54S

$$
AND FOR LAKE MICHIGAN COASTAL AND OPEN LAKE BUOY OBSERVATIONS

STATION/POSITION TEMP    WIND        PRES    VSBY  WAVE
                 AIR SEA DIR/SP/G                  HT/PER
                 (F)     (DEG/KT/KT) (MB)    (MI)  (FT/S)
CALUMET HARBOR    61     170/  7/ 11  994.5F
MICHIGAN CITY     61     150/ 11/ 13   N/A
BURNS HARBOR      62     160/  9/ 16  995.9F
SOUTH LAKE BUOY   47 42   90/  8/  8  996.0          0
4 MI NW BRIDGMAN  54 50  150/  6/  8  995.7F         1
MICHIGAN CITY     57 49                N/A           0

$$
&&




USA.gov is the U.S. government's official web portal to all federal, state and local government web resources and services.